Terminal Aerodrome Forecast
Issued by NWS Corpus Christi, TX

Home | Current Version | Previous Version | Text Only | Print | Product List | Glossary On
Versions: 1 2 3 4 5 6 7 8 9 10 11 12 13 14 15 16
000
FTUS44 KCRP 061134
TAFVCT
TAF
KVCT 061134Z 0612/0712 14013KT P6SM VCSH BKN025 OVC060
      TEMPO 0612/0615 -SHRA SCT030 BKN060
     FM061500 14015G21KT P6SM SCT030 OVC060
     FM061900 15017G24KT P6SM VCSH SCT035 BKN070
     FM070200 13011KT P6SM BKN015 OVC040
     FM070500 12008KT P6SM BKN007 OVC015
     FM071000 13006KT P6SM BKN020=

USA.gov is the U.S. government's official web portal to all federal, state and local government web resources and services.